Kodiak, AK

12:57 PM AKDT en Julio 15, 2018 (GMT -0800)
Kodiak

Tiempo Historia de PADQ - Mayo, 2018

Change the Weather History Date:

Jueves, Mayo 17, 2018

  Actual Average Record
Temperature  
Temperatura media 43 ° F 45 ° F  
Temperatura máxima 48 ° F 50 ° F 77 ° F (2014)
Temperatura mínima 37 ° F 39 ° F 28 ° F (1966)
Degree Days  
Grados día de calefacción 22 20  
Month to date heating degree days 375 374  
Since 1 July heating degree days 7278 8066  
Cooling Degree Days 0 0  
Month to date cooling degree days 0 0  
Year to date cooling degree days 0 0  
Moisture  
Punto de rocío 43 ° F    
Average Humidity 96    
Maximum Humidity 100    
Minimum Humidity 92    
Precipitación  
Precipitación 0.05 pul 0.18 pul 1.90 pul (1977)
Month to date precipitation 4.22 2.93  
Year to date precipitation 22.92 28.70  
Nieve  
Nieve 0.00 pul 0.00 pul - ()
Month to date snowfall 0.0 0.2  
Since 1 July snowfall 17.9 68.9  
Grosos de nieve 0.00 pul    
Presión al nivel del mar  
Presión al nivel del mar 30.08 pul    
Viento  
Velocidad del viento 8 mph (ENE)    
Velocidad máxima del viento 12 mph    
Max Gust Speed 15 mph    
Visibilidad 5 Millas    
Eventos Niebla , Lluvia    
T = Trace of Precipitation, MM = Missing Value Source: NWS Daily Summary

Daily Weather History Graph

Daily Weather History Graph

Search for Another Location

Airport or City:

Astronomía

May. 17, 2018 Salida Puesta
Hora real 5:42 AM AKDT 10:31 PM AKDT
Crepúsculo civil 4:46 AM AKDT 11:28 PM AKDT
Crepúsculo náutico 3:02 AM AKDT 1:17 AM AKDT
Crepúsculo astronómico Sun does not set Sun does not set
Luna 7:54 AM AKDT (5/17) 12:09 AM AKDT (5/17)
Horas de luz 18h 41m
Horas de luz
16h 48m
Creciente, 8% of the Moon is Illuminated
May 17
Creciente
May 21
Cuarto creciente
May 29
Luna llena
Jun 6
Cuarto menguante
Jun 13
Nueva

Hourly Weather History & Observations

Hora (AKDT) Temp. Vientos helados Punto de rocío Humedad Presión Visibilidad Wind Dir Velocidad del viento Velocidad de ráfagas Precip Eventos Condiciones
12:18 AM 44.1 ° F 39.0 ° F 43.0 ° F 96% 30.12 pul 3.0 mi NE 9.2 mph - 0.01 pul Lluvia Lluvia débil
12:53 AM 44.1 ° F 39.5 ° F 42.1 ° F 93% 30.12 pul 6.0 mi NE 8.1 mph - 0.02 pul Lluvia Lluvia débil
1:45 AM 44.1 ° F 39.5 ° F 42.1 ° F 93% 30.11 pul 4.0 mi NE 8.1 mph - 0.03 pul Lluvia Lluvia débil
1:53 AM 44.1 ° F 39.5 ° F 42.1 ° F 93% 30.12 pul 4.0 mi NE 8.1 mph - 0.03 pul Lluvia Lluvia débil
2:53 AM 44.1 ° F 40.1 ° F 42.1 ° F 93% 30.12 pul 4.0 mi NE 6.9 mph - 0.03 pul Lluvia Lluvia débil
3:14 AM 44.1 ° F 39.5 ° F 42.1 ° F 93% 30.11 pul 5.0 mi NE 8.1 mph - 0.01 pul Lluvia Lluvia débil
3:29 AM 43.0 ° F 38.8 ° F 42.1 ° F 97% 30.11 pul 5.0 mi ENE 6.9 mph - 0.02 pul Lluvia Lluvia débil
3:53 AM 43.0 ° F 38.2 ° F 42.1 ° F 97% 30.11 pul 5.0 mi NE 8.1 mph - 0.04 pul Lluvia Lluvia débil
4:39 AM 43.0 ° F 39.5 ° F 42.1 ° F 97% 30.10 pul 6.0 mi NE 5.8 mph - 0.03 pul Lluvia Lluvia débil
4:53 AM 44.1 ° F 39.5 ° F 42.1 ° F 93% 30.10 pul 8.0 mi NE 8.1 mph - 0.04 pul Lluvia Lluvia débil
5:23 AM 44.1 ° F 39.5 ° F 42.1 ° F 93% 30.09 pul 5.0 mi NE 8.1 mph - 0.01 pul Lluvia Lluvia débil
5:53 AM 44.1 ° F 40.1 ° F 42.1 ° F 93% 30.09 pul 5.0 mi NE 6.9 mph - 0.03 pul Lluvia Lluvia débil
6:12 AM 44.1 ° F 40.1 ° F 42.1 ° F 93% 30.08 pul 5.0 mi NE 6.9 mph - 0.01 pul Lluvia Lluvia débil
6:40 AM 44.1 ° F 40.8 ° F 43.0 ° F 96% 30.09 pul 3.0 mi NE 5.8 mph - 0.02 pul Lluvia Lluvia débil
6:50 AM 44.6 ° F 41.4 ° F 42.8 ° F 93% 30.08 pul 3.0 mi NNE 5.8 mph - 0.03 pul Lluvia Lluvia débil
6:53 AM 44.1 ° F 41.5 ° F 43.0 ° F 96% 30.08 pul 3.0 mi NNE 4.6 mph - 0.03 pul Lluvia Lluvia débil
7:04 AM 44.1 ° F 40.8 ° F 43.0 ° F 96% 30.08 pul 6.0 mi NNE 5.8 mph - 0.00 pul Lluvia Lluvia débil
7:53 AM 44.1 ° F 41.5 ° F 42.1 ° F 93% 30.08 pul 10.0 mi NE 4.6 mph - 0.01 pul Lluvia Lluvia débil
8:12 AM 44.1 ° F 38.6 ° F 43.0 ° F 96% 30.09 pul 9.0 mi Este 10.4 mph - 0.01 pul Lluvia Lluvia débil
8:19 AM 44.1 ° F 39.5 ° F 43.0 ° F 96% 30.09 pul 1.0 mi Este 8.1 mph - 0.01 pul Lluvia Lluvia débil
8:29 AM 44.1 ° F 40.8 ° F 42.1 ° F 93% 30.08 pul 0.8 mi SE 5.8 mph - 0.01 pul Lluvia Lluvia débil
8:32 AM 44.1 ° F 41.5 ° F 43.0 ° F 96% 30.08 pul 1.2 mi SE 4.6 mph - 0.02 pul Lluvia Lluvia débil
8:36 AM 44.1 ° F 41.5 ° F 43.0 ° F 96% 30.08 pul 3.0 mi SE 4.6 mph - 0.02 pul Lluvia Lluvia débil
8:53 AM 45.0 ° F - 45.0 ° F 100% 30.08 pul 10.0 mi Sin viento Sin viento - 0.02 pul Lluvia Lluvia débil
9:19 AM 44.1 ° F 40.1 ° F 43.0 ° F 96% 30.08 pul 2.5 mi ENE 6.9 mph - 0.00 pul Lluvia Lluvia débil
9:53 AM 45.0 ° F 40.6 ° F 43.0 ° F 93% 30.09 pul 1.5 mi NE 8.1 mph - 0.00 pul   Nublado
9:55 AM 44.1 ° F 39.5 ° F 43.0 ° F 96% 30.08 pul 0.5 mi ENE 8.1 mph - N/A Niebla Niebla
10:04 AM 45.0 ° F 40.1 ° F 43.0 ° F 93% 30.08 pul 3.0 mi Este 9.2 mph - N/A   Nublado
10:41 AM 45.0 ° F 39.7 ° F 43.0 ° F 93% 30.08 pul 1.2 mi Este 10.4 mph - N/A   Nublado
10:43 AM 45.0 ° F 39.3 ° F 43.0 ° F 93% 30.08 pul 0.8 mi Este 11.5 mph - N/A   Nublado
10:53 AM 45.0 ° F 39.7 ° F 44.1 ° F 97% 30.09 pul 0.5 mi Este 10.4 mph - N/A Niebla Niebla
11:10 AM 44.1 ° F 38.6 ° F 43.0 ° F 96% 30.09 pul 0.2 mi Este 10.4 mph - N/A Niebla Niebla
11:53 AM 44.1 ° F 38.1 ° F 43.0 ° F 96% 30.09 pul 0.5 mi Este 11.5 mph - N/A Niebla Niebla
12:44 PM 44.1 ° F 38.1 ° F 43.0 ° F 96% 30.09 pul 5.0 mi ENE 11.5 mph - 0.00 pul   Nublado
12:51 PM 44.6 ° F 38.8 ° F 42.8 ° F 93% 30.09 pul 5.0 mi Este 11.5 mph - 0.00 pul   Nublado
12:53 PM 44.1 ° F 38.1 ° F 43.0 ° F 96% 30.09 pul 5.0 mi Este 11.5 mph - 0.00 pul   Nublado
1:53 PM 45.0 ° F 38.5 ° F 43.0 ° F 93% 30.09 pul 9.0 mi Este 13.8 mph - N/A   Nublado
2:53 PM 46.0 ° F 40.2 ° F 44.1 ° F 93% 30.09 pul 9.0 mi Este 12.7 mph - 0.01 pul Lluvia Lluvia débil
3:31 PM 45.0 ° F 38.5 ° F 44.1 ° F 97% 30.09 pul 7.0 mi Este 13.8 mph - 0.01 pul Lluvia Lluvia débil
3:53 PM 46.0 ° F 39.9 ° F 44.1 ° F 93% 30.08 pul 8.0 mi Este 13.8 mph - 0.02 pul Lluvia Lluvia débil
4:53 PM 46.0 ° F 39.9 ° F 44.1 ° F 93% 30.08 pul 10.0 mi Este 13.8 mph - 0.02 pul Lluvia Lluvia débil
5:53 PM 45.0 ° F 38.9 ° F 43.0 ° F 93% 30.07 pul 7.0 mi Este 12.7 mph - 0.02 pul Lluvia Lluvia débil
6:18 PM 45.0 ° F 39.3 ° F 43.0 ° F 93% 30.07 pul 7.0 mi Este 11.5 mph - 0.00 pul Lluvia Lluvia débil
6:53 PM 45.0 ° F 39.3 ° F 43.0 ° F 93% 30.06 pul 4.0 mi Este 11.5 mph - 0.01 pul Lluvia Lluvia débil
7:11 PM 45.0 ° F 38.9 ° F 43.0 ° F 93% 30.06 pul 2.5 mi Este 12.7 mph - 0.02 pul Lluvia Lluvia débil
7:17 PM 45.0 ° F 38.9 ° F 43.0 ° F 93% 30.06 pul 3.0 mi Este 12.7 mph - 0.03 pul Lluvia Lluvia débil
7:24 PM 45.0 ° F 39.3 ° F 43.0 ° F 93% 30.06 pul 4.0 mi Este 11.5 mph - 0.03 pul Lluvia Lluvia débil
7:53 PM 45.0 ° F 38.9 ° F 43.0 ° F 93% 30.06 pul 6.0 mi Este 12.7 mph - 0.04 pul Lluvia Lluvia débil
8:53 PM 44.1 ° F 37.7 ° F 42.1 ° F 93% 30.05 pul 6.0 mi Este 12.7 mph - 0.04 pul Lluvia Lluvia débil
9:53 PM 44.1 ° F 37.7 ° F 43.0 ° F 96% 30.04 pul 5.0 mi ENE 12.7 mph - 0.04 pul Lluvia Lluvia débil
10:53 PM 44.1 ° F 38.1 ° F 43.0 ° F 96% 30.04 pul 5.0 mi Este 11.5 mph - 0.01 pul Lluvia Lluvia débil
11:23 PM 44.1 ° F 38.6 ° F 42.1 ° F 93% 30.03 pul 10.0 mi Este 10.4 mph - 0.01 pul   Nublado
11:44 PM 44.1 ° F 38.1 ° F 42.1 ° F 93% 30.03 pul 10.0 mi Este 11.5 mph - 0.01 pul   Nublado
11:53 PM 44.1 ° F 38.1 ° F 42.1 ° F 93% 30.03 pul 10.0 mi Este 11.5 mph - 0.01 pul   Nublado